AFR2110 LFPG-LEBL

Flight info

Callsign AFR2110
Flight time 1h 23m
Altitude 30000
Route ERIX6G ERIXU ETAMO VALKU ATSUP MINSO DEGOL PPG ALBER ALBE2W
Aircraft B738/M-V/N

Departure

Time 2026-05-04 12:39
Airport Charles de Gaulle International Airport (LFPG)

Arrival

Time 2026-05-04 14:03
Airport Josep Tarradellas Barcelona-El Prat Airport (LEBL)
Time Latitude Longitude Altitude Speed Heading
2026-05-04 12:08 49.00037 2.56821 354 ft 0 kts 229°
2026-05-04 12:14 49.00066 2.56872 356 ft 2 kts 229°
2026-05-04 12:15 49.00076 2.56890 363 ft 2 kts 229°
2026-05-04 12:15 49.00087 2.56908 363 ft 2 kts 229°
2026-05-04 12:15 49.00097 2.56926 361 ft 2 kts 229°
2026-05-04 12:15 49.00105 2.56939 363 ft 0 kts 229°
2026-05-04 12:16 49.00106 2.56942 363 ft 2 kts 229°
2026-05-04 12:17 49.00114 2.56956 362 ft 0 kts 229°
2026-05-04 12:18 49.00115 2.56926 361 ft 2 kts 285°
2026-05-04 12:19 49.00122 2.56869 356 ft 7 kts 276°
2026-05-04 12:19 49.00123 2.56816 354 ft 0 kts 268°
2026-05-04 12:20 49.00122 2.56807 354 ft 5 kts 267°
2026-05-04 12:20 49.00113 2.56682 354 ft 16 kts 270°
2026-05-04 12:20 49.00108 2.56517 354 ft 15 kts 265°
2026-05-04 12:20 49.00100 2.56363 360 ft 14 kts 266°
2026-05-04 12:21 49.00095 2.56217 354 ft 13 kts 262°
2026-05-04 12:21 49.00085 2.56080 359 ft 13 kts 266°
2026-05-04 12:21 49.00079 2.55950 354 ft 11 kts 266°
2026-05-04 12:21 49.00054 2.55874 360 ft 7 kts 213°
2026-05-04 12:22 49.00037 2.55859 357 ft 1 kts 248°
2026-05-04 12:22 49.00054 2.55803 359 ft 10 kts 295°
2026-05-04 12:22 49.00065 2.55674 354 ft 12 kts 256°
2026-05-04 12:22 49.00041 2.55565 357 ft 9 kts 266°
2026-05-04 12:23 49.00038 2.55551 355 ft 0 kts 235°
2026-05-04 12:23 49.00037 2.55550 355 ft 2 kts 232°
2026-05-04 12:23 49.00021 2.55539 358 ft 5 kts 198°
2026-05-04 12:23 49.00008 2.55536 354 ft 1 kts 186°
2026-05-04 12:24 49.00002 2.55535 355 ft 0 kts 182°
2026-05-04 12:26 49.00000 2.55536 355 ft 3 kts 180°
2026-05-04 12:27 48.99953 2.55544 357 ft 8 kts 178°
2026-05-04 12:27 48.99921 2.55529 355 ft 1 kts 211°
2026-05-04 12:27 48.99906 2.55503 355 ft 3 kts 244°
2026-05-04 12:27 48.99897 2.55472 357 ft 8 kts 241°
2026-05-04 12:28 48.99887 2.55454 359 ft 0 kts 224°
2026-05-04 12:31 48.99887 2.55453 359 ft 0 kts 224°
2026-05-04 12:31 48.99845 2.55430 361 ft 7 kts 179°
2026-05-04 12:31 48.99808 2.55439 354 ft 0 kts 156°
2026-05-04 12:32 48.99800 2.55443 354 ft 0 kts 175°
2026-05-04 12:35 48.99766 2.55451 362 ft 5 kts 159°
2026-05-04 12:35 48.99754 2.55451 359 ft 10 kts 180°
2026-05-04 12:36 48.99676 2.55450 357 ft 12 kts 160°
2026-05-04 12:36 48.99644 2.55480 355 ft 0 kts 135°
2026-05-04 12:36 48.99638 2.55489 357 ft 0 kts 141°
2026-05-04 12:37 48.99628 2.55501 360 ft 0 kts 141°
2026-05-04 12:38 48.99625 2.55505 353 ft 2 kts 139°
2026-05-04 12:38 48.99600 2.55544 351 ft 3 kts 124°
2026-05-04 12:38 48.99599 2.55545 351 ft 0 kts 122°
2026-05-04 12:38 48.99589 2.55636 356 ft 26 kts 90°
2026-05-04 12:39 48.99618 2.56194 356 ft 82 kts 86°
2026-05-04 12:39 48.99685 2.57362 351 ft 138 kts 85°
2026-05-04 12:39 48.99745 2.58999 665 ft 162 kts 89°
2026-05-04 12:39 48.99789 2.60702 1554 ft 158 kts 89°
2026-05-04 12:40 48.99817 2.62384 2355 ft 163 kts 89°
2026-05-04 12:40 48.99864 2.64192 2949 ft 179 kts 87°
2026-05-04 12:40 48.99946 2.66127 3655 ft 185 kts 85°
2026-05-04 12:40 49.00129 2.68093 4405 ft 191 kts 78°
2026-05-04 12:41 49.00447 2.70094 5074 ft 198 kts 78°
2026-05-04 12:41 49.00688 2.72167 5815 ft 199 kts 84°
2026-05-04 12:41 49.00777 2.74293 6495 ft 203 kts 88°
2026-05-04 12:41 49.00798 2.76460 7019 ft 214 kts 90°
2026-05-04 12:42 49.00661 2.78790 7486 ft 229 kts 101°
2026-05-04 12:42 49.00373 2.81291 8089 ft 249 kts 101°
2026-05-04 12:42 49.00081 2.83957 8806 ft 262 kts 100°
2026-05-04 12:42 48.99785 2.86775 9422 ft 277 kts 100°
2026-05-04 12:43 48.99480 2.89731 10062 ft 287 kts 100°
2026-05-04 12:43 48.99164 2.92784 10653 ft 298 kts 100°
2026-05-04 12:43 48.98811 2.95979 11129 ft 312 kts 104°
2026-05-04 12:43 48.98004 2.99125 11555 ft 327 kts 121°
2026-05-04 12:44 48.96517 3.01822 11967 ft 342 kts 140°
2026-05-04 12:44 48.94402 3.03604 12350 ft 357 kts 162°
2026-05-04 12:44 48.92773 3.04067 12595 ft 367 kts 177°
2026-05-04 12:44 48.90213 3.03493 12950 ft 381 kts 200°
2026-05-04 12:45 48.87942 3.01336 13535 ft 390 kts 224°
2026-05-04 12:45 48.86418 2.97986 14350 ft 391 kts 247°
2026-05-04 12:45 48.85811 2.94049 15352 ft 380 kts 262°
2026-05-04 12:45 48.85537 2.90192 16990 ft 348 kts 264°
2026-05-04 12:46 48.85379 2.86614 18319 ft 328 kts 265°
2026-05-04 12:46 48.85223 2.83153 18673 ft 336 kts 264°
2026-05-04 12:46 48.85027 2.79651 18829 ft 351 kts 263°
2026-05-04 12:46 48.84777 2.75792 19045 ft 366 kts 263°
2026-05-04 12:47 48.84519 2.71840 19246 ft 380 kts 263°
2026-05-04 12:47 48.84263 2.67763 19400 ft 394 kts 262°
2026-05-04 12:47 48.83700 2.63638 19472 ft 406 kts 251°
2026-05-04 12:47 48.82597 2.59645 19573 ft 416 kts 240°
2026-05-04 12:48 48.81000 2.55950 19889 ft 419 kts 234°
2026-05-04 12:48 48.79333 2.52373 20280 ft 421 kts 233°
2026-05-04 12:48 48.77627 2.48761 20703 ft 422 kts 233°
2026-05-04 12:48 48.75914 2.45143 21092 ft 423 kts 233°
2026-05-04 12:49 48.74157 2.41561 21449 ft 424 kts 229°
2026-05-04 12:49 48.72058 2.38424 21832 ft 425 kts 218°
2026-05-04 12:49 48.69626 2.35892 22201 ft 425 kts 211°
2026-05-04 12:49 48.67094 2.33575 22535 ft 426 kts 210°
2026-05-04 12:50 48.64540 2.31293 22838 ft 427 kts 210°
2026-05-04 12:50 48.61971 2.29016 23150 ft 428 kts 210°
2026-05-04 12:50 48.59399 2.26723 23461 ft 429 kts 210°
2026-05-04 12:50 48.56829 2.24413 23708 ft 430 kts 211°
2026-05-04 12:51 48.54240 2.22141 23924 ft 431 kts 207°
2026-05-04 12:51 48.51456 2.20465 24151 ft 432 kts 197°
2026-05-04 12:51 48.48504 2.19597 24394 ft 434 kts 186°
2026-05-04 12:51 48.45473 2.19562 24617 ft 435 kts 179°
2026-05-04 12:52 48.42472 2.19793 24812 ft 436 kts 178°
2026-05-04 12:52 48.39438 2.20068 25003 ft 437 kts 178°
2026-05-04 12:52 48.36402 2.20346 25198 ft 437 kts 178°
2026-05-04 12:52 48.33354 2.20604 25388 ft 438 kts 178°
2026-05-04 12:53 48.30305 2.20844 25571 ft 438 kts 178°
2026-05-04 12:53 48.27266 2.21375 25723 ft 440 kts 173°
2026-05-04 12:53 48.24246 2.22086 25892 ft 441 kts 172°
2026-05-04 12:53 48.21215 2.22826 26065 ft 442 kts 172°
2026-05-04 12:54 48.18178 2.23579 26217 ft 442 kts 172°
2026-05-04 12:54 48.15141 2.24325 26377 ft 443 kts 172°
2026-05-04 12:54 48.12091 2.25061 26527 ft 444 kts 173°
2026-05-04 12:54 48.09078 2.25775 26682 ft 444 kts 174°
2026-05-04 12:55 48.05986 2.26105 26822 ft 443 kts 179°
2026-05-04 12:55 48.02901 2.26321 26980 ft 444 kts 179°
2026-05-04 12:55 47.99823 2.26519 27181 ft 443 kts 179°
2026-05-04 12:55 47.96741 2.26707 27397 ft 442 kts 179°
2026-05-04 12:56 47.93673 2.26894 27617 ft 441 kts 179°
2026-05-04 12:56 47.90610 2.27088 27841 ft 440 kts 179°
2026-05-04 12:56 47.87561 2.27285 28063 ft 439 kts 179°
2026-05-04 12:56 47.84480 2.27484 28278 ft 438 kts 179°
2026-05-04 12:57 47.81502 2.27674 28491 ft 437 kts 179°
2026-05-04 12:57 47.78461 2.27866 28691 ft 436 kts 179°
2026-05-04 12:57 47.75435 2.28056 28914 ft 434 kts 179°
2026-05-04 12:57 47.72422 2.28246 29158 ft 432 kts 179°
2026-05-04 12:58 47.69418 2.28437 29402 ft 431 kts 179°
2026-05-04 12:58 47.66437 2.28625 29600 ft 430 kts 179°
2026-05-04 12:58 47.63444 2.28815 29815 ft 429 kts 179°
2026-05-04 12:58 47.60461 2.29002 29950 ft 430 kts 179°
2026-05-04 12:59 47.57496 2.29188 29991 ft 433 kts 179°
2026-05-04 12:59 47.51441 2.29566 29960 ft 437 kts 179°
2026-05-04 13:00 47.45340 2.29949 29955 ft 439 kts 179°
2026-05-04 13:00 47.39225 2.30332 29958 ft 439 kts 179°
2026-05-04 13:01 47.33117 2.30712 29957 ft 439 kts 179°
2026-05-04 13:01 47.27047 2.31090 29947 ft 438 kts 179°
2026-05-04 13:02 47.20954 2.31468 29960 ft 438 kts 179°
2026-05-04 13:02 47.14857 2.31845 29956 ft 438 kts 179°
2026-05-04 13:03 47.08769 2.32221 29957 ft 438 kts 179°
2026-05-04 13:03 47.02670 2.32593 29970 ft 439 kts 179°
2026-05-04 13:04 46.96589 2.32971 29962 ft 438 kts 179°
2026-05-04 13:04 46.90542 2.33341 29945 ft 431 kts 179°
2026-05-04 13:05 46.84594 2.33912 29941 ft 428 kts 172°
2026-05-04 13:05 46.78932 2.36652 29949 ft 429 kts 162°
2026-05-04 13:06 46.73401 2.39880 29960 ft 427 kts 161°
2026-05-04 13:06 46.67897 2.43085 29953 ft 424 kts 162°
2026-05-04 13:07 46.62433 2.46207 29950 ft 422 kts 162°
2026-05-04 13:07 46.56976 2.49344 29956 ft 421 kts 162°
2026-05-04 13:08 46.51551 2.52463 29968 ft 420 kts 162°
2026-05-04 13:08 46.46112 2.55571 29970 ft 419 kts 162°
2026-05-04 13:09 46.40723 2.58650 29959 ft 419 kts 162°
2026-05-04 13:09 46.35301 2.61737 29982 ft 418 kts 162°
2026-05-04 13:10 46.29887 2.64815 29973 ft 418 kts 162°
2026-05-04 13:10 46.24477 2.67884 29962 ft 417 kts 162°
2026-05-04 13:11 46.19078 2.70940 29971 ft 416 kts 162°
2026-05-04 13:11 46.13724 2.73965 29982 ft 416 kts 162°
2026-05-04 13:12 46.08323 2.77012 30050 ft 417 kts 162°
2026-05-04 13:12 46.02940 2.80031 29990 ft 416 kts 162°
2026-05-04 13:13 45.97555 2.83037 30013 ft 413 kts 163°
2026-05-04 13:13 45.92160 2.85862 29998 ft 411 kts 164°
2026-05-04 13:14 45.86745 2.88671 29994 ft 415 kts 163°
2026-05-04 13:14 45.81370 2.91535 29996 ft 415 kts 163°
2026-05-04 13:15 45.75939 2.94340 29987 ft 413 kts 167°
2026-05-04 13:15 45.73126 2.95099 29978 ft 409 kts 178°
2026-05-04 13:15 45.70301 2.95165 29997 ft 407 kts 182°
2026-05-04 13:16 45.64626 2.95020 29996 ft 407 kts 183°
2026-05-04 13:16 45.58973 2.94839 29981 ft 407 kts 183°
2026-05-04 13:17 45.53304 2.94700 29968 ft 407 kts 183°
2026-05-04 13:17 45.47632 2.94555 29980 ft 408 kts 183°
2026-05-04 13:18 45.41949 2.94400 29981 ft 408 kts 183°
2026-05-04 13:18 45.36271 2.94253 29988 ft 408 kts 183°
2026-05-04 13:19 45.30586 2.94105 30002 ft 409 kts 183°
2026-05-04 13:19 45.24897 2.93954 30022 ft 410 kts 183°
2026-05-04 13:20 45.19208 2.93805 30107 ft 411 kts 183°
2026-05-04 13:20 45.13504 2.93648 30088 ft 415 kts 184°
2026-05-04 13:21 45.07704 2.93507 30035 ft 418 kts 184°
2026-05-04 13:21 45.01901 2.93363 30165 ft 415 kts 184°
2026-05-04 13:21 44.99017 2.93272 30292 ft 413 kts 184°
2026-05-04 13:22 44.96136 2.93184 30207 ft 416 kts 184°
2026-05-04 13:22 44.93228 2.93112 30090 ft 419 kts 184°
2026-05-04 13:22 44.90311 2.93046 30037 ft 419 kts 184°
2026-05-04 13:23 44.84490 2.92904 30019 ft 418 kts 184°
2026-05-04 13:23 44.78691 2.92518 30099 ft 414 kts 186°
2026-05-04 13:24 44.72932 2.92007 30038 ft 416 kts 186°
2026-05-04 13:24 44.67222 2.91619 30096 ft 410 kts 185°
2026-05-04 13:25 44.58659 2.90999 30019 ft 411 kts 186°
2026-05-04 13:25 44.52942 2.90571 30015 ft 412 kts 186°
2026-05-04 13:26 44.47222 2.90172 29996 ft 411 kts 186°
2026-05-04 13:26 44.41506 2.89757 29990 ft 412 kts 186°
2026-05-04 13:27 44.35767 2.89337 29981 ft 412 kts 186°
2026-05-04 13:27 44.30044 2.88924 30004 ft 411 kts 186°
2026-05-04 13:28 44.24301 2.88498 29994 ft 415 kts 186°
2026-05-04 13:28 44.18562 2.88098 29969 ft 416 kts 186°
2026-05-04 13:29 44.12757 2.87686 29982 ft 415 kts 187°
2026-05-04 13:29 44.07019 2.87270 29974 ft 415 kts 186°
2026-05-04 13:30 44.01264 2.86858 29978 ft 414 kts 186°
2026-05-04 13:30 43.95496 2.86450 29991 ft 414 kts 187°
2026-05-04 13:31 43.89757 2.86042 30123 ft 413 kts 187°
2026-05-04 13:31 43.84020 2.85631 30133 ft 414 kts 187°
2026-05-04 13:32 43.78281 2.85225 30108 ft 413 kts 187°
2026-05-04 13:32 43.72544 2.85175 30112 ft 414 kts 183°
2026-05-04 13:33 43.66785 2.85422 30105 ft 414 kts 184°
2026-05-04 13:33 43.61036 2.85473 30124 ft 413 kts 185°
2026-05-04 13:34 43.55296 2.85525 30080 ft 413 kts 184°
2026-05-04 13:34 43.49527 2.85633 29994 ft 415 kts 184°
2026-05-04 13:35 43.40851 2.85753 29969 ft 415 kts 184°
2026-05-04 13:36 43.35078 2.85837 29965 ft 415 kts 184°
2026-05-04 13:36 43.29299 2.85924 29994 ft 416 kts 184°
2026-05-04 13:37 43.23511 2.86006 29966 ft 416 kts 184°
2026-05-04 13:37 43.17727 2.86092 29957 ft 416 kts 184°
2026-05-04 13:38 43.11982 2.86174 29957 ft 415 kts 184°
2026-05-04 13:38 43.06205 2.86255 29963 ft 415 kts 184°
2026-05-04 13:39 43.00427 2.86340 29970 ft 415 kts 184°
2026-05-04 13:39 42.95623 2.86408 29964 ft 415 kts 184°
2026-05-04 13:40 42.89854 2.86490 29956 ft 414 kts 184°
2026-05-04 13:40 42.84092 2.86573 29961 ft 414 kts 184°
2026-05-04 13:41 42.78375 2.86659 29847 ft 405 kts 184°
2026-05-04 13:41 42.75564 2.86695 29165 ft 403 kts 186°
2026-05-04 13:41 42.72769 2.86439 28232 ft 405 kts 189°
2026-05-04 13:42 42.67088 2.85766 26364 ft 413 kts 189°
2026-05-04 13:42 42.64211 2.85422 25479 ft 417 kts 189°
2026-05-04 13:42 42.61328 2.85086 25082 ft 410 kts 189°
2026-05-04 13:42 42.58580 2.84776 25066 ft 393 kts 189°
2026-05-04 13:43 42.55912 2.84473 25044 ft 377 kts 189°
2026-05-04 13:43 42.53352 2.84177 25044 ft 363 kts 189°
2026-05-04 13:43 42.50883 2.83886 25052 ft 350 kts 189°
2026-05-04 13:43 42.48497 2.83605 25060 ft 338 kts 189°
2026-05-04 13:44 42.46199 2.83336 25048 ft 326 kts 190°
2026-05-04 13:44 42.43999 2.82931 25036 ft 312 kts 195°
2026-05-04 13:44 42.41901 2.82416 25026 ft 301 kts 195°
2026-05-04 13:44 42.39865 2.81907 24983 ft 298 kts 197°
2026-05-04 13:45 42.37765 2.81341 24415 ft 318 kts 197°
2026-05-04 13:45 42.35538 2.80760 23843 ft 330 kts 194°
2026-05-04 13:45 42.33250 2.80233 23250 ft 336 kts 193°
2026-05-04 13:45 42.30922 2.79706 22566 ft 342 kts 194°
2026-05-04 13:46 42.28546 2.79140 21779 ft 351 kts 194°
2026-05-04 13:46 42.26118 2.78533 20992 ft 359 kts 194°
2026-05-04 13:46 42.23623 2.77903 20209 ft 370 kts 194°
2026-05-04 13:46 42.21078 2.77274 19600 ft 373 kts 193°
2026-05-04 13:47 42.18524 2.76657 19216 ft 371 kts 193°
2026-05-04 13:47 42.16005 2.76051 19073 ft 363 kts 193°
2026-05-04 13:47 42.13557 2.75460 18930 ft 352 kts 193°
2026-05-04 13:47 42.11161 2.74876 18492 ft 350 kts 193°
2026-05-04 13:48 42.08758 2.74285 17875 ft 353 kts 193°
2026-05-04 13:48 42.06364 2.73697 17236 ft 355 kts 193°
2026-05-04 13:48 42.03929 2.73102 16609 ft 357 kts 193°
2026-05-04 13:48 42.01484 2.72508 15992 ft 358 kts 192°
2026-05-04 13:49 41.99030 2.71911 15465 ft 357 kts 192°
2026-05-04 13:49 41.96617 2.71327 15292 ft 347 kts 192°
2026-05-04 13:49 41.94298 2.70769 15220 ft 332 kts 192°
2026-05-04 13:49 41.92046 2.70226 14922 ft 326 kts 192°
2026-05-04 13:50 41.89790 2.69676 14370 ft 334 kts 192°
2026-05-04 13:50 41.87482 2.69112 13828 ft 340 kts 192°
2026-05-04 13:50 41.85160 2.68551 13338 ft 339 kts 192°
2026-05-04 13:50 41.82795 2.67986 12679 ft 346 kts 192°
2026-05-04 13:51 41.80441 2.67372 12278 ft 343 kts 193°
2026-05-04 13:51 41.78119 2.66677 12167 ft 332 kts 195°
2026-05-04 13:51 41.75968 2.66124 12362 ft 308 kts 189°
2026-05-04 13:51 41.73822 2.65909 11170 ft 314 kts 183°
2026-05-04 13:52 41.69410 2.65499 9134 ft 315 kts 191°
2026-05-04 13:52 41.67274 2.64893 8243 ft 310 kts 194°
2026-05-04 13:52 41.65205 2.64274 7590 ft 298 kts 195°
2026-05-04 13:53 41.63294 2.63360 6896 ft 290 kts 210°
2026-05-04 13:53 41.61774 2.61741 6220 ft 283 kts 228°
2026-05-04 13:53 41.60598 2.59628 5258 ft 285 kts 234°
2026-05-04 13:54 41.58048 2.55467 3104 ft 295 kts 225°
2026-05-04 13:54 41.56665 2.53564 2939 ft 269 kts 227°
2026-05-04 13:54 41.54113 2.50373 2395 ft 238 kts 218°
2026-05-04 13:55 41.52877 2.49023 2384 ft 219 kts 220°
2026-05-04 13:55 41.50762 2.46399 2353 ft 197 kts 224°
2026-05-04 13:55 41.49809 2.45162 2357 ft 185 kts 224°
2026-05-04 13:56 41.48906 2.43994 2346 ft 178 kts 224°
2026-05-04 13:56 41.48028 2.42860 2355 ft 172 kts 223°
2026-05-04 13:56 41.46366 2.40708 2348 ft 160 kts 223°
2026-05-04 13:57 41.45572 2.39690 2450 ft 159 kts 223°
2026-05-04 13:57 41.44747 2.38636 2538 ft 168 kts 223°
2026-05-04 13:58 41.42085 2.35230 2575 ft 186 kts 224°
2026-05-04 13:58 41.40214 2.32831 2569 ft 188 kts 224°
2026-05-04 13:58 41.39280 2.31630 2640 ft 184 kts 224°
2026-05-04 13:59 41.38381 2.30471 2905 ft 168 kts 225°
2026-05-04 13:59 41.37550 2.29411 2985 ft 167 kts 224°
2026-05-04 13:59 41.36183 2.26858 2725 ft 176 kts 243°
2026-05-04 14:00 41.35666 2.25325 2476 ft 183 kts 244°
2026-05-04 14:00 41.34694 2.22452 1967 ft 156 kts 245°
2026-05-04 14:00 41.34272 2.21209 1729 ft 140 kts 241°
2026-05-04 14:01 41.33888 2.20085 1498 ft 130 kts 242°
2026-05-04 14:01 41.33512 2.18972 1307 ft 136 kts 243°
2026-05-04 14:01 41.32697 2.16588 999 ft 148 kts 245°
2026-05-04 14:02 41.32264 2.15328 790 ft 151 kts 245°
2026-05-04 14:02 41.31835 2.14068 584 ft 148 kts 245°
2026-05-04 14:02 41.31410 2.12831 405 ft 146 kts 245°
2026-05-04 14:02 41.30992 2.11610 195 ft 145 kts 245°
2026-05-04 14:03 41.30580 2.10399 31 ft 139 kts 243°
2026-05-04 14:03 41.30259 2.09422 16 ft 83 kts 233°
2026-05-04 14:03 41.30087 2.08967 15 ft 27 kts 245°
2026-05-04 14:03 41.30065 2.08863 17 ft 0 kts 251°
2026-05-04 14:04 41.30058 2.08648 19 ft 17 kts 274°
2026-05-04 14:04 41.30064 2.08565 18 ft 0 kts 284°
2026-05-04 14:06 41.30065 2.08562 18 ft 3 kts 287°
2026-05-04 14:06 41.30075 2.08539 19 ft 6 kts 308°
2026-05-04 14:07 41.30121 2.08492 17 ft 11 kts 322°
2026-05-04 14:07 41.30138 2.08373 19 ft 14 kts 249°
2026-05-04 14:07 41.30096 2.08252 17 ft 15 kts 245°
2026-05-04 14:07 41.30050 2.08123 17 ft 16 kts 244°
2026-05-04 14:08 41.30053 2.07990 18 ft 16 kts 317°
2026-05-04 14:08 41.30089 2.07960 17 ft 0 kts 322°
2026-05-04 14:08 41.30097 2.07950 19 ft 1 kts 313°
2026-05-04 14:08 41.30136 2.07906 17 ft 8 kts 317°
2026-05-04 14:09 41.30195 2.07783 17 ft 0 kts 303°